User: anonymous   Login
Location: ??
(35.4032°N, 139.3073°E)
Time: 01:43:32
(UTC+00:00)
Language:

BlueWalker 3 - Orbit

View from above orbital plane
View from above orbital plane
View from above satellite
View from above satellite

Ground track
Ground track

The orbit data is extracted from the following two-line orbital elements,

1 53807U 22111AL  24167.49406097  .00006038  00000-0  24321-3 0  9991
2 53807  53.2371 201.4258 0009735  87.0668 273.1446 15.26195983 97975
Epoch (UTC): 15 June 2024 11:51:26
Eccentricity: 0.0009735
inclination: 53.2371°
perigee height: 480 km
apogee height: 494 km
right ascension of ascending node: 201.4258°
argument of perigee: 87.0668°
revolutions per day: 15.26195983
mean anomaly at epoch: 273.1446°
orbit number at epoch: 9797

The dashed part of the orbit path shows where the satellite is in the earth's shadow,  

DLR